Location: Eaton
(41.3139°N, 82.0207°W)
Time: 13:26:29
(UTC+00:00)

ADEOS Rocket - Pass Details

Date: 17 June 2021
Orbit: 858 x 1307 km, 98.7° (Epoch: 30 July)

Event Time Altitude Azimuth Distance (km) Brightness Sun altitude
Exits shadow 08:35:04 10° 194° (SSW) 3,234 5.2 -12.3°
Maximum altitude 08:42:01 41° 262° (W) 1,668 3.9 -11.4°
Drops below altitude 10° 08:48:29 10° 331° (NNW) 2,998 5.8 -10.5°
Sets 08:51:08 0° 339° (NNW) 3,895 6.5 -10.2°
